Weather History for LGEL - August, 2013

Change the Weather History Date:

Tuesday, August 27, 2013

  Actual Average Record
Temperature  
Mean Temperature 84 °F -  
Max Temperature 96 °F 82 °F - (-1)
Min Temperature 71 °F 65 °F - (-1)
Cooling Degree Days 18    
Growing Degree Days 34 (Base 50)    
Moisture  
Dew Point 56 °F    
Average Humidity 39    
Maximum Humidity 60    
Minimum Humidity 22    
Precipitation  
Precipitation 0.00 in - - ()
Sea Level Pressure  
Sea Level Pressure 29.85 in    
Wind  
Wind Speed 2 mph ()    
Max Wind Speed 12 mph    
Max Gust Speed -    
Visibility 6.2 miles    
Events      
Averages and records for this station are not official NWS values.
T = Trace of Precipitation, MM = Missing Value Source: Averaged Metar Reports

Daily Weather History Graph

Daily Weather History Graph

Search for Another Location

Airport or City:

Trip Planner

Search our weather history database for the weather conditions in past years. The results will help you decide how hot, cold, wet, or windy it might be!

Date:

Astronomy

Aug. 27, 2013 Rise Set
Actual Time 6:51 AM EEST 8:02 PM EEST
Civil Twilight 6:23 AM EEST 8:29 PM EEST
Nautical Twilight 5:51 AM EEST 9:02 PM EEST
Astronomical Twilight 5:17 AM EEST 9:36 PM EEST
Moon 11:49 PM EEST (8/27) 1:24 PM EEST (8/27)
Length of Visible Light 14h 05m
Length of Day
13h 11m
Waning Gibbous, 60% of the Moon is Illuminated
Aug 27
Waning Gibbous
Aug 28
Last Quarter
Sep 5
New
Sep 12
First Quarter
Sep 19
Full

Hourly Weather History & Observations

Time (EEST) Temp. Heat Index Dew Point Humidity Pressure Visibility Wind Dir Wind Speed Gust Speed Precip Events Conditions
12:50 AM 75.2 °F - 51.8 °F 44% 29.89 in - Calm Calm - N/A   Clear
1:50 AM 75.2 °F - 53.6 °F 47% 29.86 in - Calm Calm - N/A   Clear
2:50 AM 73.4 °F - 53.6 °F 50% 29.86 in - Calm Calm - N/A   Clear
3:50 AM 73.4 °F - 55.4 °F 53% 29.86 in - Calm Calm - N/A   Clear
4:50 AM 73.4 °F - 55.4 °F 53% 29.86 in - Calm Calm - N/A   Clear
5:50 AM 73.4 °F - 57.2 °F 57% 29.86 in - Calm Calm - N/A   Clear
6:20 AM 75.2 °F - 59.0 °F 57% 29.86 in - Calm Calm - N/A   Clear
6:50 AM 71.6 °F - 57.2 °F 60% 29.86 in - Calm Calm - N/A   Clear
7:20 AM 73.4 °F - 57.2 °F 57% 29.86 in - Calm Calm - N/A   Clear
7:50 AM 75.2 °F - 57.2 °F 53% 29.86 in - Calm Calm - N/A   Clear
8:20 AM 80.6 °F 80.8 °F 57.2 °F 45% 29.86 in - Calm Calm - N/A   Clear
8:50 AM 82.4 °F 82.0 °F 57.2 °F 42% 29.86 in - Calm Calm - N/A   Clear
9:20 AM 86.0 °F 84.9 °F 57.2 °F 37% 29.86 in - Calm Calm - N/A   Clear
9:50 AM 86.0 °F 84.5 °F 55.4 °F 35% 29.89 in - Calm Calm - N/A   Clear
10:20 AM 86.0 °F 84.5 °F 55.4 °F 35% 29.89 in - Variable 3.5 mph - N/A   Clear
10:50 AM 87.8 °F 87.6 °F 60.8 °F 40% 29.89 in - SW 5.8 mph - N/A   Clear
11:20 AM 89.6 °F 89.5 °F 60.8 °F 38% 29.89 in - South 6.9 mph - N/A   Clear
11:50 AM 91.4 °F 89.9 °F 57.2 °F 31% 29.89 in - SSW 6.9 mph - N/A   Clear
12:20 PM 91.4 °F 89.9 °F 57.2 °F 31% 29.86 in - South 8.1 mph - N/A   Clear
12:50 PM 93.2 °F 90.8 °F 53.6 °F 26% 29.86 in - SSW 8.1 mph - N/A   Clear
1:20 PM 95.0 °F 92.7 °F 53.6 °F 25% 29.86 in - SSW 9.2 mph - N/A   Clear
1:50 PM 95.0 °F 92.7 °F 53.6 °F 25% 29.86 in - South 10.4 mph - N/A   Clear
2:20 PM 95.0 °F 93.0 °F 55.4 °F 26% 29.83 in - South 6.9 mph - N/A   Clear
2:50 PM 95.0 °F 93.0 °F 55.4 °F 26% 29.83 in 6.2 mi South 5.8 mph - N/A   Partly Cloudy
3:20 PM 95.0 °F 92.7 °F 53.6 °F 25% 29.83 in 6.2 mi South 6.9 mph - N/A   Partly Cloudy
3:50 PM 95.0 °F - 51.8 °F 23% 29.83 in 6.2 mi South 8.1 mph - N/A   Partly Cloudy
4:20 PM 96.8 °F - 51.8 °F 22% 29.80 in 6.2 mi South 9.2 mph - N/A   Partly Cloudy
4:50 PM 91.4 °F 91.4 °F 60.8 °F 36% 29.83 in 6.2 mi South 11.5 mph - N/A   Partly Cloudy
5:20 PM 91.4 °F 90.7 °F 59.0 °F 34% 29.83 in 6.2 mi South 8.1 mph - N/A   Partly Cloudy
5:50 PM 91.4 °F 89.9 °F 57.2 °F 31% 29.83 in - South 8.1 mph - N/A   Clear
6:20 PM 89.6 °F 89.5 °F 60.8 °F 38% 29.83 in - South 9.2 mph - N/A   Clear
6:50 PM 87.8 °F 86.5 °F 57.2 °F 35% 29.83 in - SSW 6.9 mph - N/A   Clear
7:20 PM 86.0 °F 84.9 °F 57.2 °F 37% 29.83 in - SSW 4.6 mph - N/A   Clear
7:50 PM 86.0 °F 84.2 °F 53.6 °F 33% 29.83 in - SSW 4.6 mph - N/A   Clear
8:20 PM 84.2 °F 82.8 °F 53.6 °F 35% 29.83 in - Calm Calm - N/A   Clear
8:50 PM 82.4 °F 81.7 °F 55.4 °F 39% 29.83 in - Calm Calm - N/A   Clear
9:20 PM 82.4 °F 81.7 °F 55.4 °F 39% 29.83 in - Calm Calm - N/A   Clear
9:50 PM 82.4 °F 82.0 °F 57.2 °F 42% 29.86 in - Calm Calm - N/A   Clear
10:20 PM 82.4 °F 82.0 °F 57.2 °F 42% 29.86 in - Calm Calm - N/A   Clear
10:50 PM 80.6 °F 80.5 °F 55.4 °F 42% 29.86 in - Calm Calm - N/A   Clear
11:20 PM 78.8 °F - 53.6 °F 42% 29.86 in - Calm Calm - N/A   Clear
11:50 PM 78.8 °F - 53.6 °F 42% 29.83 in - Calm Calm - N/A   Clear